Regional Weather Roundup
Issued by NWS Green Bay, WI

Home | Current Version | Previous Version | Text Only | Print | Product List | Glossary On
Versions: 1 2 3 4 5 6 7 8 9 10 11 12 13 14 15 16 17 18 19 20 21 22 23 24 25 26 27 28 29 30 31 32 33 34 35 36 37 38 39 40 41 42 43 44 45 46 47 48 49 50
000
ASUS43 KGRB 250100
RWRGRB

NORTH-CENTRAL AND NORTHEAST WISCONSIN REGIONAL WEATHER ROUNDUP
NATIONAL WEATHER SERVICE GREEN BAY WI
800 PM CDT SAT JUN 24 2017

WIZ005-009-010>012-018-019-250200-
NORTH CENTRAL WISCONSIN

CITY           SKY/WX    TMP DP  RH WIND       PRES   REMARKS
IRONWOOD       RAIN      54  52  93 SW3       29.95S
MANITOWISH WTR NOT AVBL
ARBOR VITAE    NOT AVBL
EAGLE RIVER    NOT AVBL
LAND O LAKES   LGT RAIN  54  52  94 CALM      29.95S
RHINELANDER    CLOUDY    53  49  86 NW3       29.96R
PHILLIPS       MOCLDY    54  50  85 CALM      29.96S
ANTIGO         NOT AVBL
TOMAHAWK       NOT AVBL
MERRILL        LGT RAIN  57  48  70 N8        29.97R
$$

WIZ013-073-250200-
NORTHEAST WISCONSIN

CITY           SKY/WX    TMP DP  RH WIND       PRES   REMARKS
IRON MOUNTAIN  CLOUDY    54  50  86 W8        29.92R
MARINETTE      MOCLDY    59  53  80 N7        29.93R
$$

WIZ017-030-035>037-045-250200-
CENTRAL WISCONSIN

CITY           SKY/WX    TMP DP  RH WIND       PRES   REMARKS
MEDFORD        NOT AVBL
WAUSAU         CLOUDY    61  42  49 W13       29.94R
MOSINEE        MOCLDY    59  45  58 W12       29.98R
MARSHFIELD     CLOUDY    55  45  68 W8        29.98R
WISC RAPIDS    CLOUDY    58  44  60 NW9       29.99R
STEVENS POINT  NOT AVBL
WAUPACA        PTCLDY    64  43  45 W7        29.95S
SHAWANO        NOT AVBL
CLINTONVILLE   NOT AVBL
WAUTOMA        CLOUDY    58  47  66 W18G29    29.99R
$$

WIZ038-039-048-051-250200-
FOX VALLEY

CITY           SKY/WX    TMP DP  RH WIND       PRES   REMARKS
NWS GREEN BAY  PTCLDY    65  47  52 W8        29.93R
APPLETON       MOCLDY    63  37  39 W9        29.94R
OSHKOSH        MOCLDY    64  46  52 VRB5      29.95S
FOND DU LAC    CLOUDY    64  43  46 W12       29.97R
$$

WIZ022-050-052-250200-
EAST CENTRAL WISCONSIN

CITY           SKY/WX    TMP DP  RH WIND       PRES   REMARKS
EPHRAIM        NOT AVBL
WASHINGTON ISL NOT AVBL
STURGEON BAY     N/A     61  52  72 N8          N/A
MANITOWOC      NOT AVBL
SHEBOYGAN      PTCLDY    64  44  48 W10       29.96R
$$

LMZ563-521-522-541>543-250200-
LAKESHORE

STATION/POSITION TIME  TEMP    WIND        PRES    VSBY  WAVE
                       AIR SEA DIR/SP/G                  HT/PER
                 (UTC) (F)     (DEG/KT/KT) (MB)    (MI)  (FT/S)
SHEBOYGAN LKSHOR 0000   67     270/ 17/ 22 1013.8R
KEWAUNEE LKSHORE 0030   67     280/  6/  9 1013.0R
NORTHPORT PIER   0040   60     320/ 12/ 14 1012.9R
N MID LAKE BUOY  2350   58 57  260/  4/  6 1013.3R         1/ 3
S GREEN BAY BUOY 0030   63      70/ 10/ 12 1013.0R
CHAMBERS ISLAND  0040   61     310/ 10/ 12 1012.9R
MENOMINEE LKSHOR 0030          350/  8/ 11 1012.5R
$$




USA.gov is the U.S. government's official web portal to all federal, state and local government web resources and services.